Location: Launay
(47.2429°N, 1.5727°E)
Time: 15:09:08
(UTC+00:00)

Tiangong - Visible Passes

Search period start: 17 July 2025 00:00
Search period end: 27 July 2025 00:00
Orbit: 391 x 402 km, 41.5° (Epoch: 17 July)

Date Brightness Start Highest point End Pass type
(mag) Time Alt. Az. Time Alt. Az. Time Alt. Az.
17 Jul 0.0 21:37:20 10° SW 21:38:13 15° SSW 21:38:13 15° SSW visible
18 Jul -0.4 20:42:09 10° SSW 20:44:22 17° SSE 20:45:51 13° SE visible
18 Jul 0.5 22:18:04 10° WSW 22:18:20 12° WSW 22:18:20 12° WSW visible
19 Jul -1.0 21:22:32 10° SW 21:25:20 27° S 21:25:34 26° SSE visible
20 Jul -0.7 20:27:04 10° SW 20:29:44 23° SSE 20:32:24 10° ESE visible
20 Jul -0.3 22:03:30 10° WSW 22:05:01 21° SW 22:05:01 21° SW visible
21 Jul -1.1 21:07:51 10° WSW 21:10:44 29° S 21:11:49 23° SE visible
22 Jul -0.9 20:12:14 10° SW 20:15:04 28° S 20:17:55 10° ESE visible
22 Jul -0.5 21:49:00 10° WSW 21:50:57 22° SW 21:50:57 22° SW visible
23 Jul -0.9 20:53:13 10° WSW 20:56:03 27° S 20:57:34 19° SE visible
24 Jul -0.2 21:34:36 10° WSW 21:36:35 18° SSW 21:36:35 18° SSW visible
25 Jul -0.5 20:38:38 10° WSW 20:41:16 23° SSW 20:43:07 14° SSE visible
26 Jul 0.3 21:20:36 10° SW 21:22:01 12° SSW 21:22:06 12° SSW visible
